Weather History for Storm Lake, IA

Change the Weather History Date:

Friday, April 19, 2013

  Actual Average Record
Temperature  
Mean Temperature 30 °F -  
Max Temperature 37 °F 60 °F 77 °F (2014)
Min Temperature 23 °F 39 °F 23 °F (2013)
Degree Days  
Heating Degree Days 35    
Moisture  
Dew Point 24 °F    
Average Humidity 79    
Maximum Humidity 93    
Minimum Humidity 65    
Precipitation  
Precipitation 0.00 in - - ()
Sea Level Pressure  
Sea Level Pressure 29.85 in    
Wind  
Wind Speed 23 mph (NW)    
Max Wind Speed 30 mph    
Max Gust Speed 36 mph    
Visibility 10 miles    
Events Snow    
Averages and records for this station are not official NWS values.
T = Trace of Precipitation, MM = Missing Value Source: NWS Daily Summary

Daily Weather History Graph

Daily Weather History Graph

Search for Another Location

Airport:

Trip Planner

Search our weather history database for the weather conditions in past years. The results will help you decide how hot, cold, wet, or windy it might be!

Date:

Astronomy

Apr. 19, 2013 Rise Set
Actual Time 6:32 AM CDT 8:07 PM CDT
Civil Twilight 6:03 AM CDT 8:37 PM CDT
Nautical Twilight 5:27 AM CDT 9:13 PM CDT
Astronomical Twilight 4:49 AM CDT 9:52 PM CDT
Moon 1:45 PM CDT (4/19) 2:57 AM CDT (4/19)
Length of Visible Light 14h 34m
Length of Day
13h 34m
First Quarter, 62% of the Moon is Illuminated
Apr 19
First Quarter
Apr 25
Full
May 2
Last Quarter
May 9
New
May 17
First Quarter

Hourly Weather History & Observations

Time (CDT) Temp. Windchill Dew Point Humidity Pressure Visibility Wind Dir Wind Speed Gust Speed Precip Events Conditions
12:15 AM 30.2 °F 16.2 °F 28.4 °F 93% 29.72 in 5.0 mi NW 25.3 mph 34.5 mph N/A Snow Light Snow
12:35 AM 30.2 °F 15.2 °F 28.4 °F 93% 29.71 in 4.0 mi NW 29.9 mph 35.7 mph N/A Snow Light Snow
12:55 AM 30.2 °F 16.2 °F 28.4 °F 93% 29.71 in 3.0 mi NW 25.3 mph 34.5 mph N/A Snow Light Snow
1:15 AM 28.4 °F 13.5 °F 26.6 °F 93% 29.71 in 7.0 mi NW 26.5 mph 34.5 mph N/A Snow Light Snow
1:35 AM 28.4 °F 13.3 °F 26.6 °F 93% 29.71 in 3.0 mi NW 27.6 mph 34.5 mph N/A Snow Light Snow
1:55 AM 28.4 °F 13.8 °F 26.6 °F 93% 29.71 in 8.0 mi NW 25.3 mph 33.4 mph N/A Snow Light Snow
2:15 AM 28.4 °F 13.5 °F 24.8 °F 86% 29.71 in 9.0 mi NW 26.5 mph - N/A Snow Light Snow
2:35 AM 28.4 °F 13.8 °F 23.0 °F 80% 29.71 in 10.0 mi NW 25.3 mph - N/A Snow Light Snow
2:55 AM 26.6 °F 12.0 °F 23.0 °F 86% 29.71 in 10.0 mi WNW 23.0 mph 33.4 mph N/A   Overcast
3:15 AM 26.6 °F 12.0 °F 21.2 °F 80% 29.70 in 10.0 mi WNW 23.0 mph 33.4 mph N/A   Overcast
3:35 AM 26.6 °F 12.7 °F 21.2 °F 80% 29.70 in 10.0 mi WNW 20.7 mph 27.6 mph N/A Snow Light Snow
3:55 AM 24.8 °F 10.0 °F 21.2 °F 86% 29.70 in 10.0 mi WNW 21.9 mph 28.8 mph N/A   Clear
4:15 AM 24.8 °F 9.3 °F 21.2 °F 86% 29.70 in 10.0 mi WNW 24.2 mph 29.9 mph N/A   Clear
4:35 AM 24.8 °F 9.6 °F 21.2 °F 86% 29.71 in 10.0 mi WNW 23.0 mph 29.9 mph N/A   Light Freezing Rain
4:55 AM 24.8 °F 9.6 °F 21.2 °F 86% 29.71 in 10.0 mi WNW 23.0 mph - N/A   Light Freezing Rain
5:15 AM 24.8 °F 10.0 °F 21.2 °F 86% 29.71 in 10.0 mi WNW 21.9 mph - N/A   Light Freezing Rain
5:55 AM 23.0 °F 7.6 °F 19.4 °F 86% 29.72 in 10.0 mi WNW 21.9 mph - N/A   Light Freezing Rain
6:15 AM 23.0 °F 8.0 °F 19.4 °F 86% 29.73 in 10.0 mi WNW 20.7 mph - N/A   Light Freezing Rain
6:35 AM 23.0 °F 8.0 °F 19.4 °F 86% 29.74 in 10.0 mi WNW 20.7 mph - N/A   Light Freezing Rain
6:55 AM 23.0 °F 7.6 °F 19.4 °F 86% 29.74 in 10.0 mi WNW 21.9 mph - N/A   Light Freezing Rain
7:15 AM 23.0 °F 8.0 °F 19.4 °F 86% 29.75 in 10.0 mi WNW 20.7 mph - N/A   Light Freezing Rain
7:35 AM 23.0 °F 6.9 °F 19.4 °F 86% 29.75 in 10.0 mi WNW 24.2 mph 35.7 mph N/A   Light Freezing Rain
7:55 AM 24.8 °F 10.0 °F 19.4 °F 80% 29.75 in 10.0 mi WNW 21.9 mph - N/A   Light Freezing Rain
8:15 AM 24.8 °F 9.3 °F 19.4 °F 80% 29.76 in 10.0 mi WNW 24.2 mph - N/A   Light Freezing Rain
8:35 AM 24.8 °F 9.0 °F 19.4 °F 80% 29.76 in 10.0 mi WNW 25.3 mph - N/A   Light Freezing Rain
8:55 AM 26.6 °F 12.4 °F 21.2 °F 80% 29.77 in 10.0 mi WNW 21.9 mph - N/A   Light Freezing Rain
9:15 AM 26.6 °F 11.7 °F 21.2 °F 80% 29.77 in 10.0 mi WNW 24.2 mph - N/A   Light Freezing Rain
9:55 AM 28.4 °F 14.7 °F 23.0 °F 80% 29.79 in 10.0 mi WNW 21.9 mph - N/A   Light Freezing Rain
10:15 AM 30.2 °F 17.8 °F 23.0 °F 75% 29.79 in 10.0 mi WNW 19.6 mph - N/A   Light Freezing Rain
10:35 AM 30.2 °F 16.5 °F 23.0 °F 75% 29.80 in 10.0 mi WNW 24.2 mph - N/A   Light Freezing Rain
10:55 AM 30.2 °F 17.1 °F 23.0 °F 75% 29.81 in 10.0 mi WNW 21.9 mph 28.8 mph N/A   Light Freezing Rain
11:15 AM 30.2 °F 16.5 °F 24.8 °F 80% 29.81 in 10.0 mi WNW 24.2 mph 31.1 mph N/A   Light Freezing Rain
11:35 AM 32.0 °F 18.9 °F 24.8 °F 75% 29.82 in 10.0 mi WNW 24.2 mph 29.9 mph N/A   Light Drizzle
11:55 AM 32.0 °F 18.9 °F 24.8 °F 75% 29.83 in 10.0 mi WNW 24.2 mph - N/A   Light Drizzle
12:15 PM 32.0 °F 19.2 °F 24.8 °F 75% 29.84 in 10.0 mi WNW 23.0 mph 28.8 mph N/A   Clear
12:35 PM 32.0 °F 19.2 °F 26.6 °F 80% 29.84 in 10.0 mi WNW 23.0 mph - N/A   Clear
12:55 PM 33.8 °F 21.0 °F 26.6 °F 75% 29.84 in 10.0 mi WNW 25.3 mph 31.1 mph N/A   Clear
1:15 PM 33.8 °F 20.8 °F 26.6 °F 75% 29.85 in 10.0 mi WNW 26.5 mph - N/A   Clear
1:35 PM 33.8 °F 21.9 °F 28.4 °F 81% 29.85 in 10.0 mi NW 21.9 mph 28.8 mph N/A   Partly Cloudy
1:55 PM 35.6 °F 23.4 °F 28.4 °F 75% 29.85 in 10.0 mi NW 25.3 mph - N/A   Partly Cloudy
2:15 PM 35.6 °F 22.7 °F 26.6 °F 70% 29.86 in 10.0 mi NW 28.8 mph 35.7 mph N/A   Scattered Clouds
2:35 PM 35.6 °F 24.0 °F 28.4 °F 75% 29.87 in 10.0 mi NW 23.0 mph 32.2 mph N/A   Mostly Cloudy
2:55 PM 35.6 °F 23.4 °F 26.6 °F 70% 29.88 in 10.0 mi NW 25.3 mph 33.4 mph N/A   Scattered Clouds
3:15 PM 35.6 °F 23.4 °F 26.6 °F 70% 29.88 in 10.0 mi NW 25.3 mph 35.7 mph N/A   Scattered Clouds
3:35 PM 37.4 °F 25.9 °F 28.4 °F 70% 29.89 in 10.0 mi NW 25.3 mph 34.5 mph N/A   Mostly Cloudy
3:55 PM 37.4 °F 25.6 °F 26.6 °F 65% 29.90 in 10.0 mi NW 26.5 mph 34.5 mph N/A   Mostly Cloudy
4:15 PM 37.4 °F 26.6 °F 28.4 °F 70% 29.90 in 10.0 mi NW 21.9 mph 34.5 mph N/A   Scattered Clouds
4:35 PM 35.6 °F 23.4 °F 26.6 °F 70% 29.91 in 10.0 mi NW 25.3 mph - N/A   Partly Cloudy
4:55 PM 35.6 °F 24.0 °F 26.6 °F 70% 29.92 in 10.0 mi NW 23.0 mph 31.1 mph N/A   Scattered Clouds
5:15 PM 35.6 °F 24.2 °F 24.8 °F 65% 29.93 in 10.0 mi NW 21.9 mph 28.8 mph N/A   Scattered Clouds
5:35 PM 35.6 °F 24.0 °F 24.8 °F 65% 29.93 in 10.0 mi NW 23.0 mph 28.8 mph N/A   Clear
5:55 PM 33.8 °F 22.5 °F 24.8 °F 70% 29.94 in 10.0 mi NW 19.6 mph 27.6 mph N/A   Partly Cloudy
6:15 PM 33.8 °F 22.5 °F 24.8 °F 70% 29.95 in 10.0 mi NW 19.6 mph 27.6 mph N/A   Clear
6:35 PM 33.8 °F 21.3 °F 24.8 °F 70% 29.95 in 10.0 mi NNW 24.2 mph - N/A   Clear
6:55 PM 33.8 °F - 24.8 °F 70% 29.96 in 10.0 mi North - - N/A   Scattered Clouds
7:15 PM 33.8 °F 22.8 °F 24.8 °F 70% 29.97 in 10.0 mi NW 18.4 mph 25.3 mph N/A   Partly Cloudy
7:35 PM 33.8 °F 22.5 °F 24.8 °F 70% 29.98 in 10.0 mi NW 19.6 mph 26.5 mph N/A   Clear
7:55 PM 32.0 °F 20.5 °F 24.8 °F 75% 29.98 in 10.0 mi NNW 18.4 mph - N/A   Clear
8:15 PM 32.0 °F 22.1 °F 24.8 °F 75% 29.99 in 10.0 mi NW 13.8 mph - N/A   Clear
8:35 PM 32.0 °F 22.1 °F 24.8 °F 75% 30.00 in 10.0 mi NW 13.8 mph - N/A   Unknown
8:55 PM 32.0 °F 23.6 °F 24.8 °F 75% 30.01 in 10.0 mi NW 10.4 mph - N/A   Clear
9:15 PM 30.2 °F 20.2 °F 24.8 °F 80% 30.02 in 10.0 mi NNW 12.7 mph - N/A   Clear
9:35 PM 30.2 °F 19.3 °F 24.8 °F 80% 30.03 in 10.0 mi NNW 15.0 mph - N/A   Clear
9:55 PM 30.2 °F 20.2 °F 24.8 °F 80% 30.04 in 10.0 mi NW 12.7 mph - N/A   Clear
10:15 PM 30.2 °F 19.8 °F 24.8 °F 80% 30.04 in 10.0 mi NW 13.8 mph - N/A   Clear
10:35 PM 30.2 °F 20.2 °F 23.0 °F 75% 30.04 in 10.0 mi NW 12.7 mph - N/A   Clear
10:55 PM 30.2 °F 20.8 °F 24.8 °F 80% 30.05 in 10.0 mi NW 11.5 mph - N/A   Clear
11:15 PM 30.2 °F 20.8 °F 23.0 °F 75% 30.05 in 10.0 mi NW 11.5 mph - N/A   Clear
11:35 PM 28.4 °F 19.1 °F 24.8 °F 86% 30.05 in 10.0 mi NW 10.4 mph - N/A   Clear
11:55 PM 28.4 °F 18.5 °F 24.8 °F 86% 30.06 in 10.0 mi NW 11.5 mph - N/A   Clear